Home > Weather > Stockport > Past weeks

Flag for United Kingdom Past Weather in Stockport, England, United Kingdom — Yesterday and Last 2 Weeks

Now
57 °F

Sunny.


Feels Like: 55 °F
Forecast: 45 / 67 °F
Wind: 8 mph from East

Location: Manchester Airport

Current Time: May 27, 2016 at 9:24:38 PM

Latest Report: May 27, 2016 at 8:50 PM


Visibility: 10 mi

Pressure: 30.04 "Hg

Humidity: 67%

Dew Point: 46 °F

Location of StockportLocation

Past Weather in Stockport — Graph

°F

Stockport Temperature Yesterday

Maximum temperature yesterday: 55 °F (at 2:20 PM)
Minimum temperature yesterday: 46 °F (at 12:20 AM)
Average temperature yesterday: 51 °F

High & Low Weather Summary for the Past Weeks

 TemperatureHumidityPressure
High66 °F (May 27, 4:20 PM)100% (May 22, 2:50 AM)30.24 "Hg (May 22, 2:50 AM)
Low37 °F (May 15, 3:50 AM)38% (May 14, 4:20 PM)29.56 "Hg (May 18, 7:20 AM)
Average52 °F76%29.96 "Hg
* Reported May 12 8:20 PM — May 27 8:20 PM, Stockport, Weather by CustomWeather, © 2016

Note: Actual official high and low records may vary slightly from our data, if they occured in-between our weather recording intervals... More about our weather records

Advertising

Stockport Weather History for the Previous 24 Hours

Scroll right to see more
 ConditionsComfort  
Time TempWeatherWind HumidityBarometerVisibility
8:20 PM
Fri, May 27
59 °FScattered clouds.9 mph63%30.04 "HgN/A
7:50 PM61 °FScattered clouds.10 mph59%30.04 "HgN/A
7:20 PM63 °FSunny.6 mph56%30.04 "Hg10 mi
6:50 PM63 °FSunny.5 mph56%30.04 "Hg10 mi
6:20 PM63 °FSunny.6 mph52%30.04 "Hg10 mi
5:50 PM64 °FPassing clouds.5 mph49%30.04 "HgN/A
5:20 PM64 °FSunny.3 mph49%30.04 "Hg10 mi
4:50 PM64 °FScattered clouds.7 mph49%30.04 "HgN/A
4:20 PM66 °FSunny.3 mph46%30.04 "Hg10 mi
3:50 PM64 °FPassing clouds.5 mph46%30.04 "HgN/A
3:20 PM63 °FPartly sunny.3 mph49%30.07 "HgN/A
2:50 PM63 °FScattered clouds.2 mph49%30.07 "HgN/A
2:20 PM63 °FScattered clouds.6 mph52%30.07 "HgN/A
1:50 PM63 °FPartly sunny.2 mph49%30.07 "HgN/A
1:20 PM61 °FPartly sunny.3 mph55%30.07 "HgN/A
12:50 PM61 °FPartly sunny.5 mph55%30.07 "HgN/A
12:20 PM61 °FPartly sunny.5 mph55%30.07 "HgN/A
11:50 AM61 °FPartly sunny.3 mph55%30.07 "HgN/A
11:20 AM59 °FPartly sunny.5 mph63%30.07 "HgN/A
10:50 AM57 °FPartly sunny.6 mph67%30.07 "HgN/A
10:20 AM59 °FPartly sunny.5 mph68%30.07 "HgN/A
9:50 AM57 °FPartly sunny.3 mph72%30.07 "Hg6 mi
9:20 AM55 °FPartly sunny.3 mph77%30.07 "Hg6 mi
8:50 AM55 °FPartly sunny.2 mph77%30.07 "Hg5 mi
8:20 AM55 °FPartly sunny.No wind77%30.07 "Hg4 mi
7:50 AM54 °FPartly sunny.2 mph82%30.07 "Hg4 mi
7:20 AM54 °FPartly sunny.3 mph82%30.07 "Hg4 mi
6:50 AM52 °FPartly sunny.3 mph88%30.07 "Hg3 mi
6:20 AM50 °FPartly sunny.2 mph94%30.07 "Hg4 mi
5:50 AM50 °FPassing clouds.5 mph94%30.07 "Hg4 mi
5:20 AM50 °FPassing clouds.3 mph88%30.04 "Hg4 mi
4:50 AM50 °FOvercast.2 mph94%30.04 "Hg4 mi
4:20 AM50 °FOvercast.5 mph94%30.04 "Hg4 mi
3:50 AM52 °FOvercast.2 mph94%30.04 "Hg3 mi
3:20 AM52 °FOvercast.2 mph94%30.04 "Hg4 mi
2:50 AM52 °FPassing clouds.2 mph94%30.04 "Hg5 mi
2:20 AM52 °FPassing clouds.5 mph94%30.04 "HgN/A
1:50 AM52 °FPassing clouds.3 mph94%30.04 "Hg5 mi
1:20 AM52 °FOvercast.3 mph94%30.04 "HgN/A
12:50 AM52 °FPassing clouds.2 mph94%30.04 "HgN/A
12:20 AM52 °FOvercast.No wind94%30.04 "HgN/A
11:50 PM
Thu, May 26
52 °FOvercast.3 mph94%30.04 "HgN/A
11:20 PM52 °FOvercast.3 mph94%30.04 "HgN/A
10:50 PM54 °FPassing clouds.2 mph88%30.04 "HgN/A
10:20 PM54 °FPassing clouds.No wind88%30.04 "HgN/A
9:50 PM54 °FPartly sunny.No wind88%30.04 "HgN/A
9:20 PM54 °FPartly sunny.No wind88%30.04 "HgN/A
Weather by CustomWeather, © 2016

See weather overviewHow to use our weather pages